Time,TemperatureF,DewpointF,PressureIn,WindDirection,WindDirectionDegrees,WindSpeedMPH,WindSpeedGustMPH,Humidity,HourlyPrecipIn,Conditions,Clouds,dailyrainin,SoftwareType,DateUTC
2013-06-25 00:10:00,69.1,64.7,29.18,ENE,64,0.0,3.0,86,0.00,,,0.00,Weather View 32 v70,2013-06-25 04:10:00,
2013-06-25 00:19:00,69.1,64.7,29.18,ENE,64,0.0,3.0,86,0.00,,,0.00,Weather View 32 v70,2013-06-25 04:19:00,
2013-06-25 00:30:00,69.3,64.9,29.18,ENE,64,0.0,0.0,86,0.00,,,0.00,Weather View 32 v70,2013-06-25 04:30:00,
2013-06-25 00:40:00,69.3,65.2,29.18,ENE,64,0.0,0.0,87,0.00,,,0.00,Weather View 32 v70,2013-06-25 04:40:00,
2013-06-25 00:50:00,69.3,65.2,29.18,ENE,64,0.0,0.0,87,0.00,,,0.00,Weather View 32 v70,2013-06-25 04:50:00,
2013-06-25 01:00:00,69.1,65.4,29.18,ENE,64,0.0,0.0,88,0.00,,,0.00,Weather View 32 v70,2013-06-25 05:00:00,
2013-06-25 01:10:00,68.9,65.2,29.18,ENE,64,0.0,0.0,88,0.00,,,0.00,Weather View 32 v70,2013-06-25 05:10:00,
2013-06-25 01:20:00,68.9,64.9,29.18,ENE,64,0.0,0.0,87,0.00,,,0.00,Weather View 32 v70,2013-06-25 05:20:00,
2013-06-25 01:30:00,68.9,64.9,29.18,ENE,64,0.0,0.0,87,0.00,,,0.00,Weather View 32 v70,2013-06-25 05:30:00,
2013-06-25 01:40:00,68.9,64.5,29.18,ENE,64,0.0,0.0,86,0.00,,,0.00,Weather View 32 v70,2013-06-25 05:40:00,
2013-06-25 01:50:00,68.9,64.5,29.18,ENE,64,0.0,0.0,86,0.00,,,0.00,Weather View 32 v70,2013-06-25 05:50:00,
2013-06-25 02:00:00,68.7,63.0,29.18,SSW,210,0.0,0.0,82,0.00,,,0.00,Weather View 32 v70,2013-06-25 06:00:00,
2013-06-25 02:09:00,68.5,62.1,29.18,SSW,203,0.0,3.0,80,0.00,,,0.00,Weather View 32 v70,2013-06-25 06:09:00,
2013-06-25 02:21:00,68.2,61.0,29.18,SSW,209,0.0,4.0,78,0.00,,,0.00,Weather View 32 v70,2013-06-25 06:21:00,
2013-06-25 02:30:00,68.0,61.2,29.18,SW,214,0.0,4.0,79,0.00,,,0.00,Weather View 32 v70,2013-06-25 06:30:00,
2013-06-25 02:40:00,68.0,61.6,29.15,SW,214,0.0,4.0,80,0.00,,,0.00,Weather View 32 v70,2013-06-25 06:40:00,
2013-06-25 02:50:00,67.8,61.4,29.15,SSW,206,0.0,4.0,80,0.00,,,0.00,Weather View 32 v70,2013-06-25 06:50:00,
2013-06-25 03:00:00,67.8,61.8,29.18,SSW,201,0.0,4.0,81,0.00,,,0.00,Weather View 32 v70,2013-06-25 07:00:00,
2013-06-25 03:10:00,67.6,61.6,29.15,SW,214,0.0,4.0,81,0.00,,,0.00,Weather View 32 v70,2013-06-25 07:10:00,
2013-06-25 03:20:00,67.6,61.6,29.15,SSW,207,0.0,2.0,81,0.00,,,0.00,Weather View 32 v70,2013-06-25 07:20:00,
2013-06-25 03:30:00,67.5,61.4,29.15,NW,313,0.0,5.0,81,0.00,,,0.00,Weather View 32 v70,2013-06-25 07:30:00,
2013-06-25 03:40:00,67.5,61.1,29.15,SSW,192,0.0,5.0,80,0.00,,,0.00,Weather View 32 v70,2013-06-25 07:40:00,
2013-06-25 03:50:00,67.5,61.1,29.15,WSW,250,0.0,5.0,80,0.00,,,0.00,Weather View 32 v70,2013-06-25 07:50:00,
2013-06-25 04:00:00,67.3,60.5,29.18,West,281,0.0,5.0,79,0.00,,,0.00,Weather View 32 v70,2013-06-25 08:00:00,
2013-06-25 04:10:00,67.3,60.5,29.18,South,190,0.0,5.0,79,0.00,,,0.00,Weather View 32 v70,2013-06-25 08:10:00,
2013-06-25 04:20:00,67.1,60.7,29.18,SW,214,0.0,5.0,80,0.00,,,0.00,Weather View 32 v70,2013-06-25 08:20:00,
2013-06-25 04:30:00,66.9,60.5,29.18,SW,222,0.0,5.0,80,0.00,,,0.00,Weather View 32 v70,2013-06-25 08:30:00,
2013-06-25 04:40:00,66.9,60.9,29.18,SW,222,0.0,5.0,81,0.00,,,0.00,Weather View 32 v70,2013-06-25 08:40:00,
2013-06-25 04:50:00,66.7,60.7,29.18,SW,222,0.0,2.0,81,0.00,,,0.00,Weather View 32 v70,2013-06-25 08:50:00,
2013-06-25 05:00:00,66.7,60.7,29.18,SSW,213,0.0,3.0,81,0.00,,,0.00,Weather View 32 v70,2013-06-25 09:00:00,
2013-06-25 05:10:00,66.7,60.7,29.18,SSW,200,0.0,3.0,81,0.00,,,0.00,Weather View 32 v70,2013-06-25 09:10:00,
2013-06-25 05:20:00,66.6,60.5,29.18,SSW,200,0.0,3.0,81,0.00,,,0.00,Weather View 32 v70,2013-06-25 09:20:00,
2013-06-25 05:30:00,66.6,60.5,29.18,South,182,0.0,3.0,81,0.00,,,0.00,Weather View 32 v70,2013-06-25 09:30:00,
2013-06-25 05:40:00,66.4,60.7,29.18,South,182,0.0,3.0,82,0.00,,,0.00,Weather View 32 v70,2013-06-25 09:40:00,
2013-06-25 05:50:00,66.4,60.7,29.18,South,182,0.0,3.0,82,0.00,,,0.00,Weather View 32 v70,2013-06-25 09:50:00,
2013-06-25 06:00:00,66.4,61.0,29.18,South,184,0.0,3.0,83,0.00,,,0.00,Weather View 32 v70,2013-06-25 10:00:00,
2013-06-25 06:10:00,66.4,61.0,29.18,SSW,195,0.0,2.0,83,0.00,,,0.00,Weather View 32 v70,2013-06-25 10:10:00,
2013-06-25 06:20:00,66.4,61.0,29.18,SSW,192,0.0,2.0,83,0.00,,,0.00,Weather View 32 v70,2013-06-25 10:20:00,
2013-06-25 06:30:00,66.6,60.9,29.21,SSW,192,0.0,2.0,82,0.00,,,0.00,Weather View 32 v70,2013-06-25 10:30:00,
2013-06-25 06:40:00,66.7,60.7,29.21,SSW,208,0.0,3.0,81,0.00,,,0.00,Weather View 32 v70,2013-06-25 10:40:00,
2013-06-25 06:50:00,66.7,60.7,29.21,SSW,197,0.0,4.0,81,0.00,,,0.00,Weather View 32 v70,2013-06-25 10:50:00,
2013-06-25 07:00:00,66.9,60.5,29.21,SSW,196,3.0,4.0,80,0.00,,,0.00,Weather View 32 v70,2013-06-25 11:00:00,
2013-06-25 07:10:00,67.1,60.0,29.21,SSW,211,0.0,4.0,78,0.00,,,0.00,Weather View 32 v70,2013-06-25 11:10:00,
2013-06-25 07:20:00,67.1,60.0,29.21,SSW,196,3.0,4.0,78,0.00,,,0.00,Weather View 32 v70,2013-06-25 11:20:00,
2013-06-25 07:25:00,67.1,60.0,29.21,SSW,196,3.0,4.0,78,0.00,,,0.00,Weather View 32 v70,2013-06-25 11:25:00,
2013-06-25 07:40:00,66.9,61.2,29.23,South,189,2.0,8.0,82,0.04,,,0.04,Weather View 32 v70,2013-06-25 11:40:00,
2013-06-25 07:50:00,66.6,62.2,29.23,SSW,199,0.0,8.0,86,0.12,,,0.12,Weather View 32 v70,2013-06-25 11:50:00,
2013-06-25 08:00:00,66.4,62.4,29.21,South,190,0.0,8.0,87,0.12,,,0.12,Weather View 32 v70,2013-06-25 12:00:00,
2013-06-25 08:10:00,66.4,62.7,29.18,WNW,300,0.0,8.0,88,0.16,,,0.16,Weather View 32 v70,2013-06-25 12:10:00,
2013-06-25 08:20:00,66.4,63.0,29.18,WNW,300,0.0,8.0,89,0.16,,,0.16,Weather View 32 v70,2013-06-25 12:20:00,
2013-06-25 08:26:00,66.4,63.0,29.18,WNW,300,0.0,8.0,89,0.16,,,0.16,Weather View 32 v70,2013-06-25 12:26:00,
2013-06-25 08:40:00,66.4,63.3,29.23,NW,309,0.0,5.0,90,0.12,,,0.16,Weather View 32 v70,2013-06-25 12:40:00,
2013-06-25 08:50:00,66.4,63.3,29.23,NNW,345,3.0,3.0,90,0.04,,,0.16,Weather View 32 v70,2013-06-25 12:50:00,
2013-06-25 09:00:00,66.4,63.7,29.23,SSW,203,0.0,3.0,91,0.04,,,0.16,Weather View 32 v70,2013-06-25 13:00:00,
2013-06-25 09:09:00,66.6,63.8,29.23,South,189,0.0,3.0,91,0.00,,,0.16,Weather View 32 v70,2013-06-25 13:09:00,
2013-06-25 09:20:00,66.7,64.0,29.23,SSW,212,0.0,3.0,91,0.00,,,0.16,Weather View 32 v70,2013-06-25 13:20:00,
2013-06-25 09:27:00,66.7,64.0,29.23,SSW,212,0.0,3.0,91,0.00,,,0.16,Weather View 32 v70,2013-06-25 13:27:00,
2013-06-25 09:40:00,66.9,64.2,29.21,SSW,194,0.0,3.0,91,0.04,,,0.20,Weather View 32 v70,2013-06-25 13:40:00,
2013-06-25 09:50:00,67.1,64.1,29.21,SSW,202,0.0,3.0,90,0.04,,,0.20,Weather View 32 v70,2013-06-25 13:50:00,
2013-06-25 10:00:00,67.3,64.2,29.18,SSW,193,0.0,3.0,90,0.04,,,0.20,Weather View 32 v70,2013-06-25 14:00:00,
2013-06-25 10:10:00,67.5,64.1,29.18,SSW,205,3.0,3.0,89,0.04,,,0.20,Weather View 32 v70,2013-06-25 14:10:00,
2013-06-25 10:20:00,67.8,64.1,29.18,SSW,198,0.0,4.0,88,0.04,,,0.20,Weather View 32 v70,2013-06-25 14:20:00,
2013-06-25 10:27:00,67.8,64.1,29.18,SSW,198,0.0,4.0,88,0.04,,,0.20,Weather View 32 v70,2013-06-25 14:27:00,
2013-06-25 10:40:00,69.1,63.3,29.15,SSW,200,2.0,4.0,82,0.00,,,0.20,Weather View 32 v70,2013-06-25 14:40:00,
2013-06-25 10:50:00,69.1,62.3,29.15,SSW,200,0.0,4.0,79,0.00,,,0.20,Weather View 32 v70,2013-06-25 14:50:00,
2013-06-25 11:00:00,69.3,62.4,29.15,SSW,201,0.0,4.0,79,0.00,,,0.20,Weather View 32 v70,2013-06-25 15:00:00,
2013-06-25 11:10:00,69.3,62.1,29.18,SSW,201,0.0,4.0,78,0.00,,,0.20,Weather View 32 v70,2013-06-25 15:10:00,
2013-06-25 11:20:00,69.3,61.7,29.18,SSW,200,2.0,3.0,77,0.00,,,0.20,Weather View 32 v70,2013-06-25 15:20:00,
2013-06-25 11:28:00,69.3,61.7,29.18,SSW,200,2.0,3.0,77,0.00,,,0.20,Weather View 32 v70,2013-06-25 15:28:00,
2013-06-25 11:40:00,71.6,60.9,29.18,WSW,239,0.0,3.0,69,0.00,,,0.20,Weather View 32 v70,2013-06-25 15:40:00,
2013-06-25 11:50:00,71.1,59.5,29.18,SSW,205,0.0,4.0,67,0.00,,,0.20,Weather View 32 v70,2013-06-25 15:50:00,
2013-06-25 12:00:00,71.2,59.7,29.18,NW,317,3.0,4.0,67,0.00,,,0.20,Weather View 32 v70,2013-06-25 16:00:00,
2013-06-25 12:10:00,71.4,60.7,29.21,South,185,0.0,4.0,69,0.00,,,0.20,Weather View 32 v70,2013-06-25 16:10:00,
2013-06-25 12:20:00,71.2,60.5,29.21,SSW,205,0.0,4.0,69,0.00,,,0.20,Weather View 32 v70,2013-06-25 16:20:00,
2013-06-25 12:29:00,71.2,60.5,29.21,SSW,205,0.0,4.0,69,0.00,,,0.20,Weather View 32 v70,2013-06-25 16:29:00,
2013-06-25 12:40:00,72.1,60.5,29.21,SW,224,0.0,4.0,67,0.00,,,0.20,Weather View 32 v70,2013-06-25 16:40:00,
2013-06-25 12:50:00,71.6,60.4,29.21,SSW,199,0.0,4.0,68,0.00,,,0.20,Weather View 32 v70,2013-06-25 16:50:00,
2013-06-25 13:00:00,71.2,61.3,29.21,WNW,283,0.0,4.0,71,0.00,,,0.20,Weather View 32 v70,2013-06-25 17:00:00,
2013-06-25 13:10:00,71.1,62.3,29.21,NNW,344,0.0,4.0,74,0.00,,,0.20,Weather View 32 v70,2013-06-25 17:10:00,
2013-06-25 13:20:00,71.2,63.3,29.21,NW,326,0.0,4.0,76,0.00,,,0.20,Weather View 32 v70,2013-06-25 17:20:00,
2013-06-25 13:30:00,71.2,63.3,29.21,WNW,296,0.0,3.0,76,0.00,,,0.20,Weather View 32 v70,2013-06-25 17:30:00,
2013-06-25 13:40:00,70.7,62.4,29.23,East,92,0.0,4.0,75,0.00,,,0.20,Weather View 32 v70,2013-06-25 17:40:00,
2013-06-25 13:50:00,70.2,62.6,29.23,WNW,303,0.0,5.0,77,0.00,,,0.20,Weather View 32 v70,2013-06-25 17:50:00,
2013-06-25 14:00:00,70.0,63.5,29.21,NW,313,0.0,5.0,80,0.00,,,0.20,Weather View 32 v70,2013-06-25 18:00:00,
2013-06-25 14:10:00,70.7,64.2,29.18,NW,313,0.0,5.0,80,0.00,,,0.20,Weather View 32 v70,2013-06-25 18:10:00,
2013-06-25 14:20:00,72.0,64.7,29.18,East,100,0.0,5.0,78,0.00,,,0.20,Weather View 32 v70,2013-06-25 18:20:00,
2013-06-25 14:31:00,73.2,64.4,29.15,East,98,0.0,5.0,74,0.00,,,0.20,Weather View 32 v70,2013-06-25 18:31:00,
2013-06-25 14:40:00,73.8,63.3,29.12,ESE,117,0.0,5.0,70,0.00,,,0.20,Weather View 32 v70,2013-06-25 18:40:00,
2013-06-25 14:50:00,75.2,63.4,29.12,ESE,113,0.0,3.0,67,0.00,,,0.20,Weather View 32 v70,2013-06-25 18:50:00,
2013-06-25 15:00:00,75.4,59.5,29.12,SSE,163,0.0,3.0,58,0.00,,,0.20,Weather View 32 v70,2013-06-25 19:00:00,
2013-06-25 15:10:00,75.2,62.1,29.15,North,0,0.0,4.0,64,0.00,,,0.20,Weather View 32 v70,2013-06-25 19:10:00,
2013-06-25 15:20:00,75.9,62.8,29.15,West,262,0.0,4.0,64,0.00,,,0.20,Weather View 32 v70,2013-06-25 19:20:00,
2013-06-25 15:30:00,76.1,60.7,29.15,SSE,150,0.0,4.0,59,0.00,,,0.20,Weather View 32 v70,2013-06-25 19:30:00,
2013-06-25 15:40:00,76.5,62.0,29.15,SSE,150,0.0,4.0,61,0.00,,,0.20,Weather View 32 v70,2013-06-25 19:40:00,
2013-06-25 15:50:00,75.6,60.2,29.15,SSE,150,0.0,4.0,59,0.00,,,0.20,Weather View 32 v70,2013-06-25 19:50:00,
2013-06-25 16:00:00,75.9,59.5,29.12,SSE,150,0.0,4.0,57,0.00,,,0.20,Weather View 32 v70,2013-06-25 20:00:00,
2013-06-25 16:10:00,75.7,58.9,29.12,SSE,150,0.0,2.0,56,0.00,,,0.20,Weather View 32 v70,2013-06-25 20:10:00,
2013-06-25 16:20:00,76.1,58.7,29.12,NNW,332,0.0,0.0,55,0.00,,,0.20,Weather View 32 v70,2013-06-25 20:20:00,
2013-06-25 16:30:00,76.6,61.7,29.15,NW,314,0.0,0.0,60,0.00,,,0.20,Weather View 32 v70,2013-06-25 20:30:00,
2013-06-25 16:40:00,77.5,60.0,29.15,SW,230,0.0,4.0,55,0.00,,,0.20,Weather View 32 v70,2013-06-25 20:40:00,
2013-06-25 16:50:00,77.7,59.7,29.15,SW,214,0.0,5.0,54,0.00,,,0.20,Weather View 32 v70,2013-06-25 20:50:00,
2013-06-25 17:00:00,78.1,61.6,29.15,SSW,195,0.0,5.0,57,0.00,,,0.20,Weather View 32 v70,2013-06-25 21:00:00,
2013-06-25 17:10:00,78.3,60.2,29.15,NW,304,0.0,5.0,54,0.00,,,0.20,Weather View 32 v70,2013-06-25 21:10:00,
2013-06-25 17:20:00,78.3,59.7,29.15,NNE,28,0.0,5.0,53,0.00,,,0.20,Weather View 32 v70,2013-06-25 21:20:00,
2013-06-25 17:30:00,78.1,58.4,29.15,NE,46,0.0,5.0,51,0.00,,,0.20,Weather View 32 v70,2013-06-25 21:30:00,
2013-06-25 17:40:00,77.7,58.6,29.15,NW,324,0.0,5.0,52,0.00,,,0.20,Weather View 32 v70,2013-06-25 21:40:00,
2013-06-25 17:50:00,77.9,57.7,29.15,NNW,345,0.0,5.0,50,0.00,,,0.20,Weather View 32 v70,2013-06-25 21:50:00,
2013-06-25 18:00:00,78.3,58.0,29.15,NW,320,0.0,5.0,50,0.00,,,0.20,Weather View 32 v70,2013-06-25 22:00:00,
2013-06-25 18:10:00,78.6,57.8,29.12,NNE,33,0.0,4.0,49,0.00,,,0.20,Weather View 32 v70,2013-06-25 22:10:00,
2013-06-25 18:20:00,78.4,57.1,29.12,North,357,0.0,4.0,48,0.00,,,0.20,Weather View 32 v70,2013-06-25 22:20:00,
2013-06-25 18:30:00,78.4,58.2,29.12,NE,43,0.0,4.0,50,0.00,,,0.20,Weather View 32 v70,2013-06-25 22:30:00,
2013-06-25 18:40:00,78.3,58.6,29.12,North,357,0.0,4.0,51,0.00,,,0.20,Weather View 32 v70,2013-06-25 22:40:00,
2013-06-25 18:50:00,78.1,59.0,29.12,NE,42,2.0,4.0,52,0.00,,,0.20,Weather View 32 v70,2013-06-25 22:50:00,
2013-06-25 19:00:00,77.9,57.7,29.12,WSW,242,3.0,4.0,50,0.00,,,0.20,Weather View 32 v70,2013-06-25 23:00:00,
2013-06-25 19:10:00,77.9,57.7,29.12,North,9,0.0,4.0,50,0.00,,,0.20,Weather View 32 v70,2013-06-25 23:10:00,
2013-06-25 19:20:00,77.5,56.8,29.12,NNW,339,0.0,4.0,49,0.00,,,0.20,Weather View 32 v70,2013-06-25 23:20:00,
2013-06-25 19:30:00,77.4,58.3,29.12,NNE,17,0.0,4.0,52,0.00,,,0.20,Weather View 32 v70,2013-06-25 23:30:00,
2013-06-25 19:40:00,76.8,57.3,29.12,NNE,22,0.0,4.0,51,0.00,,,0.20,Weather View 32 v70,2013-06-25 23:40:00,
2013-06-25 19:50:00,76.6,57.6,29.12,NNE,22,0.0,4.0,52,0.00,,,0.20,Weather View 32 v70,2013-06-25 23:50:00,
2013-06-25 20:00:00,76.1,58.2,29.12,NNE,22,0.0,4.0,54,0.00,,,0.20,Weather View 32 v70,2013-06-26 00:00:00,
2013-06-25 20:10:00,75.6,59.7,29.12,NNE,22,0.0,4.0,58,0.00,,,0.20,Weather View 32 v70,2013-06-26 00:10:00,
2013-06-25 20:20:00,74.7,60.7,29.12,NNE,22,0.0,4.0,62,0.00,,,0.20,Weather View 32 v70,2013-06-26 00:20:00,
2013-06-25 20:30:00,74.1,61.6,29.09,NNE,22,0.0,4.0,65,0.00,,,0.20,Weather View 32 v70,2013-06-26 00:30:00,
2013-06-25 20:40:00,73.8,62.1,29.09,NNE,22,0.0,0.0,67,0.00,,,0.20,Weather View 32 v70,2013-06-26 00:40:00,
2013-06-25 20:50:00,73.4,62.6,29.09,NNE,22,0.0,0.0,69,0.00,,,0.20,Weather View 32 v70,2013-06-26 00:50:00,
2013-06-25 21:00:00,73.2,62.8,29.09,NNE,22,0.0,0.0,70,0.00,,,0.20,Weather View 32 v70,2013-06-26 01:00:00,
2013-06-25 21:10:00,72.9,62.9,29.09,NNE,22,0.0,0.0,71,0.00,,,0.20,Weather View 32 v70,2013-06-26 01:10:00,
2013-06-25 21:20:00,72.5,62.9,29.09,NNE,22,0.0,0.0,72,0.00,,,0.20,Weather View 32 v70,2013-06-26 01:20:00,
2013-06-25 21:30:00,72.1,64.1,29.09,NNE,22,0.0,0.0,76,0.00,,,0.20,Weather View 32 v70,2013-06-26 01:30:00,
2013-06-25 21:35:00,72.1,64.1,29.09,NNE,22,0.0,0.0,76,0.00,,,0.20,Weather View 32 v70,2013-06-26 01:35:00,
2013-06-25 21:50:00,72.1,64.9,29.12,NNE,22,0.0,0.0,78,0.00,,,0.20,Weather View 32 v70,2013-06-26 01:50:00,
2013-06-25 22:00:00,72.0,64.7,29.12,NNE,22,0.0,0.0,78,0.00,,,0.20,Weather View 32 v70,2013-06-26 02:00:00,
2013-06-25 22:10:00,71.6,65.1,29.12,NNE,22,0.0,0.0,80,0.00,,,0.20,Weather View 32 v70,2013-06-26 02:10:00,
2013-06-25 22:20:00,71.4,65.3,29.12,NNE,22,0.0,0.0,81,0.00,,,0.20,Weather View 32 v70,2013-06-26 02:20:00,
2013-06-25 22:30:00,70.9,64.7,29.12,NNE,22,0.0,0.0,81,0.00,,,0.20,Weather View 32 v70,2013-06-26 02:30:00,
2013-06-25 22:36:00,70.9,64.7,29.12,NNE,22,0.0,0.0,81,0.00,,,0.20,Weather View 32 v70,2013-06-26 02:36:00,
2013-06-25 22:50:00,70.2,65.1,29.12,NNE,22,0.0,0.0,84,0.00,,,0.20,Weather View 32 v70,2013-06-26 02:50:00,
2013-06-25 23:00:00,70.2,65.8,29.09,NNE,22,0.0,0.0,86,0.00,,,0.20,Weather View 32 v70,2013-06-26 03:00:00,
2013-06-25 23:10:00,70.3,65.9,29.12,NNE,22,0.0,0.0,86,0.00,,,0.20,Weather View 32 v70,2013-06-26 03:10:00,
2013-06-25 23:20:00,70.3,65.6,29.12,NNE,22,0.0,0.0,85,0.00,,,0.20,Weather View 32 v70,2013-06-26 03:20:00,
2013-06-25 23:30:00,70.2,65.4,29.12,NNE,22,0.0,0.0,85,0.00,,,0.20,Weather View 32 v70,2013-06-26 03:30:00,
2013-06-25 23:37:00,70.2,65.4,29.12,NNE,22,0.0,0.0,85,0.00,,,0.20,Weather View 32 v70,2013-06-26 03:37:00,
2013-06-25 23:50:00,69.8,64.4,29.12,NNE,22,0.0,0.0,83,0.00,,,0.20,Weather View 32 v70,2013-06-26 03:50:00,